Wind_Speed
16 14 15 15 16 16 16 17 18 20 19 18 19 18 19 20 21 21 21 19 20 20 22 26 27 27 20 24 25 25 27 26 26 20 18 12 8 4 4 4 5 4 6
17 20 20 21 18 17 16 16 17 17 18 18 18 18 18 18 20 21 21 22 23 22 21 25 25 27 25 24 23 25 27 26 26 19 16 10 5 7 4 6 7 5 4
27 24 22 24 21 20 18 17 18 18 18 18 17 17 18 19 21 22 21 20 20 22 21 24 26 26 25 22 21 23 26 25 24 18 14 12 6 4 5 4 1 1 1
21 19 20 24 25 21 19 17 18 19 20 20 20 20 21 23 22 21 21 20 19 21 21 20 25 27 23 23 20 21 22 25 23 21 16 12 6 4 5 6 6 5 3
26 22 25 25 30 28 24 16 14 17 18 21 23 25 26 27 23 22 20 19 19 20 20 19 21 21 23 24 20 19 21 21 24 23 18 12 9 9 7 10 10 11 9
33 28 27 26 29 29 25 31 26 28 27 23 30 32 31 27 26 23 22 21 21 20 20 17 18 21 24 24 22 18 20 18 18 20 18 12 9 9 9 13 15 16 13
34 35 30 27 29 32 33 33 31 33 30 30 27 28 22 20 17 23 20 20 23 19 20 17 19 23 18 17 21 18 18 16 14 17 16 11 7 6 7 9 10 13 12
17 20 19 16 18 26 27 29 29 31 22 24 24 24 27 26 27 24 20 20 19 21 23 23 19 12 14 16 18 20 17 15 13 13 13 10 6 3 6 6 9 11 10
19 20 18 10 7 9 10 13 16 16 17 21 22 24 22 20 19 19 18 21 23 26 28 29 24 19 22 18 19 18 15 15 14 12 11 11 6 3 2 5 7 8 9
10 4 4 6 5 7 10 13 10 11 12 12 16 15 17 20 20 23 22 23 24 28 30 31 28 23 22 20 17 12 15 13 13 12 12 11 9 6 3 2 4 10 9
19 10 8 8 9 11 12 12 13 16 20 18 16 15 17 18 18 16 19 19 16 21 26 19 23 21 20 16 10 8 11 10 12 13 11 11 9 8 6 4 2 5 10
9 12 10 11 13 15 16 16 17 17 16 15 14 11 11 11 12 14 6 9 17 24 11 15 8 7 13 8 8 6 8 7 9 10 10 10 11 8 8 6 3 3 7
7 8 11 16 20 22 24 23 22 22 19 17 16 14 13 14 13 8 2 5 12 10 17 10 5 3 1 3 7 4 8 6 5 9 11 11 12 11 8 7 4 3 4
10 11 15 19 21 21 22 22 22 22 21 21 20 20 17 17 17 11 9 5 6 6 7 6 4 2 2 5 5 6 7 6 5 5 9 10 10 11 8 6 4 1 1
11 11 16 20 21 22 22 24 23 22 23 21 21 23 22 24 20 16 12 10 7 1 3 9 7 5 4 9 7 8 6 6 7 7 6 6 7 8 8 7 4 2 2
14 17 20 24 26 24 24 24 23 24 24 24 25 24 26 25 24 22 22 20 18 16 13 11 10 9 11 11 9 10 11 9 8 7 7 7 8 8 7 6 4 1 1
16 17 23 25 27 26 24 23 19 23 25 25 25 25 27 28 28 26 27 26 25 25 24 19 15 16 15 14 14 15 16 14 12 9 8 8 7 8 7 5 4 3 2
17 21 23 22 23 24 23 23 19 18 21 23 25 27 26 27 29 30 28 28 28 28 26 24 21 19 18 19 20 19 16 16 12 11 10 10 9 7 3 6 5 4 3
16 19 21 22 22 22 22 22 24 20 21 21 22 24 26 27 28 29 30 28 27 26 26 24 25 26 22 21 20 19 18 16 13 12 20 15 13 9 7 5 6 5 4
16 16 17 20 21 23 24 23 23 24 23 24 24 22 24 26 28 27 27 27 26 26 27 27 28 29 25 25 24 19 21 17 18 15 17 14 17 11 10 7 6 9 7
15 15 15 18 20 24 27 30 33 32 28 26 26 26 26 26 25 29 26 21 27 24 26 27 27 28 28 28 23 21 19 18 20 17 19 17 14 14 14 11 5 7 11
12 14 17 17 19 24 28 31 32 32 33 32 30 27 29 31 29 27 28 26 25 24 25 26 26 25 26 29 26 22 20 19 19 15 16 15 19 20 21 15 13 11 13
11 15 17 19 20 24 26 31 33 32 32 33 33 33 30 31 33 31 29 34 30 25 25 25 25 24 24 24 22 20 19 18 16 15 16 14 17 18 15 17 17 11 11
13 17 18 20 21 24 25 34 32 30 29 29 32 32 32 31 32 33 31 30 32 30 26 27 25 25 24 22 21 19 18 18 18 15 15 16 17 16 16 18 13 17 12
14 16 18 21 23 24 24 29 28 27 27 25 25 27 29 29 29 30 31 29 30 29 28 28 26 25 24 23 19 18 18 19 19 19 17 17 15 17 18 18 19 17 17
14 15 18 20 21 23 26 29 31 28 25 26 24 24 26 28 28 29 28 30 29 31 28 27 26 26 26 26 23 22 27 21 20 19 17 16 17 19 20 20 19 21 20
Wind_Direction
258 273 282 293 283 263 262 263 264 267 271 274 276 284 292 302 309 314 319 318 318 321 321 333 335 334 355 353 354 348 352 349 348 344 343 340 329 53 36 26 67 78 86
269 267 275 275 288 284 269 263 264 266 270 276 284 293 300 307 311 315 317 316 319 319 320 330 334 339 344 351 352 351 348 353 355 357 356 1 358 78 71 81 97 105 97
268 263 269 277 279 289 279 269 268 271 277 284 290 295 298 300 302 303 306 309 311 310 317 325 334 338 333 342 353 351 349 352 356 359 9 14 25 71 90 1 86 116 358
245 280 266 261 262 271 273 275 278 283 289 292 298 297 295 295 299 298 296 299 303 304 308 319 325 338 336 334 349 355 353 351 359 9 13 26 25 66 72 353 337 280 279
245 263 275 267 267 268 268 270 275 275 280 290 300 296 295 293 293 289 289 291 299 300 301 311 317 331 339 330 342 354 358 352 354 8 8 19 24 49 32 22 30 26 358
243 255 255 261 262 265 278 286 299 285 278 279 287 288 281 289 281 289 289 284 286 292 295 305 319 329 333 330 332 348 358 356 1 360 3 8 19 37 36 35 27 30 27
248 257 265 272 269 256 273 266 272 264 255 274 280 279 276 283 288 293 288 281 277 285 291 298 310 316 323 328 329 342 350 358 12 3 4 4 16 26 37 32 44 29 20
247 240 258 269 270 265 267 267 269 248 253 277 270 278 269 279 288 292 286 286 277 278 283 290 297 313 327 334 334 335 341 357 18 19 3 360 21 24 27 22 47 49 33
256 255 255 255 257 261 286 286 266 277 271 270 278 276 282 279 283 305 304 290 286 288 290 288 289 291 286 296 313 327 325 348 9 31 19 359 11 43 358 2 356 27 47
253 234 259 228 253 289 322 282 265 274 276 275 271 275 276 275 287 293 294 289 292 290 284 281 274 261 271 292 297 315 315 340 2 24 29 14 2 17 34 1 7 8 29
221 220 264 274 292 271 298 308 301 289 276 260 261 267 277 284 298 308 311 305 300 299 286 268 249 241 267 277 266 289 307 332 10 10 28 26 17 23 14 26 18 20 19
187 223 265 286 298 302 298 297 293 292 290 280 271 269 280 291 302 316 337 335 339 338 279 248 220 203 237 224 254 267 296 315 13 4 15 30 27 34 23 21 1 29 28
227 254 279 288 294 297 291 288 282 276 276 272 270 276 280 285 285 296 299 340 355 6 46 120 146 200 91 311 260 272 287 297 360 2 11 21 24 21 31 24 2 8 47
262 281 296 305 304 301 296 290 285 280 275 270 269 266 269 276 283 268 256 281 359 12 347 355 27 53 7 279 292 278 280 298 336 360 14 13 7 9 24 18 20 352 81
270 292 310 308 304 299 298 295 295 287 279 274 268 265 258 260 267 258 244 249 287 206 275 317 331 305 285 291 275 275 287 305 315 329 6 359 360 1 359 21 6 2 162
306 320 315 311 307 307 306 300 292 286 281 276 271 267 264 255 256 254 248 248 262 267 276 274 275 277 276 278 279 290 299 300 300 311 325 330 344 346 347 16 357 355 235
308 313 308 304 305 309 309 307 300 285 279 274 267 267 264 262 252 246 248 252 253 264 266 265 261 267 261 261 264 273 281 290 288 296 309 303 308 326 339 350 4 300 200
305 297 297 304 303 303 307 305 301 290 284 279 275 267 264 261 258 251 248 252 254 256 260 257 255 251 255 254 258 266 273 279 284 294 286 286 289 305 322 331 328 316 263
290 295 303 302 304 308 308 307 302 299 290 284 276 272 265 263 261 258 256 256 254 256 258 257 253 248 248 255 261 267 274 277 266 278 275 266 263 261 289 290 297 291 289
280 293 298 295 297 299 303 307 306 301 291 283 280 274 268 264 265 263 261 265 257 254 255 257 254 250 245 253 260 261 277 284 284 283 278 273 248 254 264 256 276 280 274
277 285 290 293 300 304 306 307 306 302 294 286 278 277 274 265 263 262 251 277 262 257 250 251 250 248 245 243 249 259 268 268 277 267 261 262 244 252 258 252 240 276 264
268 283 289 293 299 306 304 307 305 297 291 283 275 270 270 270 264 260 261 252 264 257 254 250 247 242 235 237 238 242 248 256 264 253 230 242 244 236 247 254 253 270 273
286 291 296 305 300 306 301 316 312 302 295 285 277 267 260 258 263 261 256 255 257 256 248 247 246 240 230 227 228 233 237 246 253 235 227 231 232 238 241 235 249 256 274
296 297 304 307 305 305 309 320 314 303 298 286 277 274 265 262 259 261 259 261 255 251 247 238 237 238 227 226 228 230 234 241 247 238 232 237 231 226 237 239 238 251 252
295 302 309 311 313 316 316 333 323 314 303 292 280 271 266 265 267 262 259 258 263 241 244 232 227 226 223 223 227 236 241 243 239 238 235 233 222 231 229 247 230 242 249
301 312 316 316 319 322 325 324 326 326 312 294 278 271 267 267 269 263 260 252 256 235 233 225 222 219 222 223 225 242 250 244 233 230 232 234 235 232 230 240 230 251 236
Height
3188 3188 3190 3191 3192 3192 3193 3194 3195 3195 3196 3196 3195 3195 3194 3193 3192 3190 3189 3187 3185 3182 3179 3171 3170 3167 3163 3161 3158 3153 3148 3141 3137 3130 3127 3124 3122 3120 3120 3119 3119 3119 3118
3185 3184 3186 3187 3188 3189 3190 3190 3191 3191 3191 3192 3192 3192 3191 3190 3189 3188 3187 3185 3182 3179 3177 3174 3171 3166 3163 3160 3157 3151 3145 3141 3135 3131 3127 3123 3121 3119 3120 3120 3119 3119 3119
3179 3181 3182 3183 3185 3185 3186 3187 3188 3188 3188 3189 3189 3188 3187 3187 3186 3184 3184 3182 3180 3176 3174 3173 3168 3165 3161 3159 3155 3151 3144 3139 3134 3131 3127 3124 3121 3120 3120 3121 3121 3119 3119
3175 3176 3179 3180 3181 3183 3183 3184 3185 3186 3186 3186 3187 3185 3183 3182 3181 3179 3179 3178 3176 3173 3171 3170 3167 3162 3159 3157 3154 3151 3146 3139 3133 3131 3127 3124 3123 3121 3120 3120 3120 3119 3117
3173 3174 3175 3177 3178 3179 3180 3180 3181 3182 3182 3181 3181 3180 3179 3178 3176 3175 3174 3172 3171 3168 3168 3168 3165 3161 3159 3156 3153 3149 3146 3140 3133 3130 3129 3125 3123 3120 3118 3118 3118 3113 3116
3168 3169 3170 3172 3171 3173 3174 3178 3179 3180 3178 3175 3175 3173 3174 3172 3171 3170 3170 3169 3167 3163 3163 3165 3162 3160 3157 3156 3152 3149 3147 3142 3135 3130 3129 3127 3124 3122 3120 3119 3118 3118 3117
3163 3165 3166 3168 3168 3168 3169 3169 3169 3166 3168 3169 3168 3168 3167 3167 3167 3166 3164 3162 3160 3161 3160 3161 3160 3157 3155 3154 3152 3149 3147 3144 3137 3133 3131 3129 3127 3126 3124 3122 3120 3119 3119
3159 3160 3162 3162 3162 3162 3163 3160 3159 3159 3159 3160 3162 3161 3162 3162 3162 3160 3158 3157 3155 3154 3155 3154 3155 3154 3153 3153 3152 3150 3147 3144 3139 3135 3132 3131 3128 3127 3127 3124 3123 3121 3121
3155 3156 3157 3157 3158 3158 3156 3154 3153 3154 3154 3156 3156 3157 3156 3156 3157 3154 3152 3151 3151 3148 3147 3146 3149 3150 3148 3149 3149 3149 3148 3145 3140 3136 3133 3132 3130 3128 3127 3127 3126 3123 3122
3151 3152 3153 3154 3155 3154 3153 3152 3152 3154 3152 3154 3153 3152 3153 3152 3151 3150 3147 3146 3144 3141 3139 3138 3140 3142 3142 3145 3147 3146 3146 3145 3140 3137 3134 3134 3133 3130 3128 3128 3126 3124 3123
3148 3150 3151 3152 3152 3152 3152 3150 3149 3150 3150 3149 3148 3147 3149 3147 3146 3144 3142 3139 3137 3134 3130 3130 3132 3136 3139 3141 3144 3144 3145 3145 3141 3138 3135 3135 3133 3131 3130 3129 3128 3125 3124
3146 3148 3149 3149 3150 3150 3150 3149 3148 3147 3147 3146 3146 3145 3145 3144 3143 3141 3138 3137 3134 3128 3123 3125 3129 3134 3136 3138 3142 3142 3143 3143 3140 3139 3136 3136 3135 3131 3131 3130 3129 3127 3126
3144 3145 3146 3147 3146 3146 3145 3145 3144 3144 3143 3142 3142 3142 3141 3140 3139 3137 3136 3135 3133 3130 3127 3126 3129 3133 3134 3137 3140 3140 3142 3142 3140 3139 3137 3135 3135 3133 3131 3130 3130 3130 3128
3140 3141 3142 3142 3141 3140 3139 3138 3137 3138 3137 3137 3136 3137 3137 3136 3136 3137 3135 3135 3135 3132 3131 3129 3131 3131 3133 3137 3138 3140 3140 3140 3138 3138 3137 3136 3135 3136 3133 3131 3130 3130 3131
3135 3136 3135 3135 3135 3134 3133 3131 3130 3130 3130 3130 3130 3130 3131 3132 3134 3133 3133 3133 3134 3133 3132 3132 3132 3133 3134 3135 3136 3139 3139 3139 3137 3137 3136 3137 3136 3135 3135 3132 3131 3131 3131
3126 3126 3126 3126 3127 3127 3125 3125 3124 3123 3122 3123 3124 3124 3124 3125 3128 3128 3129 3129 3129 3131 3130 3129 3130 3131 3133 3134 3134 3135 3136 3136 3136 3135 3135 3135 3135 3134 3135 3133 3132 3131 3132
3121 3121 3121 3122 3120 3119 3119 3118 3118 3116 3116 3116 3116 3116 3116 3118 3120 3120 3121 3123 3124 3127 3127 3127 3127 3129 3129 3130 3131 3133 3133 3133 3134 3132 3133 3133 3133 3133 3133 3133 3132 3132 3131
3115 3117 3119 3116 3115 3114 3113 3111 3112 3111 3110 3109 3108 3108 3108 3108 3110 3112 3113 3115 3118 3120 3120 3121 3122 3124 3125 3127 3128 3129 3129 3130 3130 3128 3130 3131 3132 3132 3131 3133 3133 3133 3132
3112 3113 3112 3111 3110 3108 3108 3107 3105 3105 3103 3102 3101 3101 3101 3100 3101 3102 3106 3107 3109 3112 3112 3115 3116 3118 3120 3121 3121 3122 3123 3124 3125 3125 3125 3127 3128 3129 3130 3130 3131 3132 3132
3108 3108 3107 3106 3105 3104 3102 3100 3100 3098 3097 3095 3094 3094 3093 3093 3093 3095 3096 3098 3100 3103 3105 3106 3108 3109 3112 3113 3116 3116 3116 3117 3119 3120 3122 3120 3122 3125 3126 3127 3129 3130 3130
3103 3103 3103 3102 3099 3097 3095 3093 3091 3090 3090 3089 3088 3086 3085 3085 3086 3087 3088 3090 3092 3094 3097 3098 3100 3102 3103 3106 3109 3110 3111 3113 3114 3115 3116 3117 3119 3121 3123 3123 3125 3127 3128
3099 3098 3098 3097 3095 3093 3090 3087 3084 3081 3078 3078 3079 3079 3078 3077 3078 3079 3080 3082 3084 3086 3087 3089 3091 3094 3097 3099 3101 3104 3106 3108 3108 3109 3111 3113 3113 3115 3118 3121 3123 3124 3125
3093 3093 3093 3091 3089 3088 3085 3081 3076 3072 3069 3067 3066 3067 3069 3070 3069 3070 3072 3074 3076 3078 3079 3081 3084 3086 3088 3091 3094 3097 3099 3102 3102 3102 3104 3106 3109 3111 3113 3116 3118 3119 3121
3089 3089 3086 3084 3084 3082 3078 3074 3068 3064 3061 3058 3057 3056 3058 3060 3061 3062 3063 3065 3066 3069 3070 3073 3076 3079 3081 3084 3087 3090 3093 3096 3097 3097 3099 3101 3103 3106 3108 3111 3114 3115 3117
3085 3084 3081 3079 3077 3073 3070 3067 3062 3056 3052 3049 3049 3048 3049 3051 3052 3053 3054 3056 3057 3059 3062 3065 3067 3071 3075 3078 3081 3084 3087 3090 3091 3092 3094 3096 3098 3101 3103 3106 3108 3110 3112
3081 3079 3077 3074 3071 3067 3063 3060 3056 3050 3046 3043 3041 3041 3041 3043 3043 3044 3044 3046 3049 3051 3053 3056 3059 3063 3067 3070 3073 3077 3083 3084 3084 3086 3088 3090 3092 3095 3098 3100 3102 3105 3105